Change the Weather History Date:

Friday, November 9, 2012

  Actual Average (KOXV) Record (KOXV)
Temperature  
Mean Temperature 51 °F -  
Max Temperature 62 °F 51 °F 78 °F (1999)
Min Temperature 40 °F 33 °F 15 °F (1991)
Degree Days  
Heating Degree Days 14    
Growing Degree Days 1 (Base 50)    
Moisture  
Dew Point 43 °F    
Average Humidity 72    
Maximum Humidity 86    
Minimum Humidity 54    
Precipitation  
Precipitation 0.00 in - - ()
Sea Level Pressure  
Sea Level Pressure 29.89 in    
Wind  
Wind Speed 7 mph (ESE)    
Max Wind Speed 12 mph    
Max Gust Speed -    
Visibility 10 miles    
Events      
Averages and records for this station are not official NWS values.
T = Trace of Precipitation, MM = Missing Value Source: NWS Daily Summary

Daily Weather History Graph

Daily Weather History Graph

Search for Another Location

Airport or City:

Trip Planner

Search our weather history database for the weather conditions in past years. The results will help you decide how hot, cold, wet, or windy it might be!

Date:

Astronomy

Nov. 09, 2012 Rise Set
Actual Time 6:53 AM CST 4:57 PM CST
Civil Twilight 6:24 AM CST 5:26 PM CST
Nautical Twilight 5:51 AM CST 5:59 PM CST
Astronomical Twilight 5:18 AM CST 6:32 PM CST
Moon 1:49 AM CST (11/9) 2:13 PM CST (11/9)
Length of Visible Light 11h 02m
Length of Day
10h 03m
Waning Crescent, 23% of the Moon is Illuminated
Nov 9
Waning Crescent
Nov 13
New
Nov 20
First Quarter
Nov 28
Full
Dec 6
Last Quarter

Hourly Weather History & Observations

Time (CST) Temp. Windchill Dew Point Humidity Pressure Visibility Wind Dir Wind Speed Gust Speed Precip Events Conditions
12:15 AM 41.9 °F 37.5 °F 36.0 °F 79% 29.96 in 10.0 mi ESE 6.9 mph - N/A   Clear
12:35 AM 41.9 °F 37.5 °F 36.1 °F 80% 29.96 in 10.0 mi ESE 6.9 mph - N/A   Clear
12:55 AM 41.5 °F 37.8 °F 35.8 °F 80% 29.96 in 10.0 mi ESE 5.8 mph - N/A   Clear
1:15 AM 41.7 °F 38.8 °F 36.3 °F 81% 29.96 in 10.0 mi ESE 4.6 mph - N/A   Scattered Clouds
1:35 AM 41.5 °F 37.8 °F 36.1 °F 81% 29.95 in 10.0 mi ESE 5.8 mph - N/A   Mostly Cloudy
1:55 AM 41.0 °F 37.1 °F 36.0 °F 82% 29.95 in 10.0 mi ESE 5.8 mph - N/A   Mostly Cloudy
2:15 AM 41.0 °F 37.1 °F 36.0 °F 82% 29.95 in 10.0 mi ESE 5.8 mph - N/A   Scattered Clouds
2:35 AM 41.0 °F 37.1 °F 36.0 °F 82% 29.95 in 10.0 mi ESE 5.8 mph - N/A   Clear
2:55 AM 40.6 °F 36.7 °F 35.8 °F 83% 29.95 in 10.0 mi ESE 5.8 mph - N/A   Clear
3:15 AM 40.3 °F 36.3 °F 35.6 °F 83% 29.95 in 10.0 mi ESE 5.8 mph - N/A   Clear
3:35 AM 40.3 °F 37.1 °F 35.6 °F 83% 29.95 in 10.0 mi ESE 4.6 mph - N/A   Clear
3:55 AM 40.3 °F 37.1 °F 36.0 °F 85% 29.94 in 10.0 mi East 4.6 mph - N/A   Clear
4:15 AM 40.6 °F 36.7 °F 36.1 °F 84% 29.94 in 10.0 mi ESE 5.8 mph - N/A   Clear
4:35 AM 41.0 °F 37.1 °F 36.1 °F 83% 29.94 in 10.0 mi ESE 5.8 mph - N/A   Scattered Clouds
4:55 AM 41.0 °F 36.4 °F 36.1 °F 83% 29.94 in 10.0 mi ESE 6.9 mph - N/A   Mostly Cloudy
5:15 AM 41.0 °F 36.4 °F 36.1 °F 83% 29.94 in 10.0 mi ESE 6.9 mph - N/A   Mostly Cloudy
5:55 AM 41.5 °F 37.8 °F 36.7 °F 83% 29.94 in 10.0 mi ESE 5.8 mph - N/A   Mostly Cloudy
6:15 AM 41.9 °F 37.5 °F 36.9 °F 82% 29.93 in 10.0 mi ESE 6.9 mph - N/A   Scattered Clouds
6:35 AM 41.4 °F 36.8 °F 36.7 °F 83% 29.93 in 10.0 mi ESE 6.9 mph - N/A   Scattered Clouds
6:55 AM 41.0 °F 37.1 °F 36.7 °F 85% 29.94 in 10.0 mi ESE 5.8 mph - N/A   Clear
7:15 AM 41.0 °F 36.4 °F 37.2 °F 86% 29.94 in 10.0 mi ESE 6.9 mph - N/A   Scattered Clouds
7:35 AM 42.1 °F 38.4 °F 37.9 °F 85% 29.94 in 10.0 mi East 5.8 mph - N/A   Clear
7:55 AM 43.7 °F 40.3 °F 37.9 °F 80% 29.94 in 10.0 mi ESE 5.8 mph - N/A   Clear
8:15 AM 44.6 °F 40.7 °F 38.5 °F 79% 29.94 in 10.0 mi East 6.9 mph - N/A   Clear
8:35 AM 44.8 °F 41.0 °F 39.2 °F 81% 29.94 in 10.0 mi ESE 6.9 mph - N/A   Clear
8:55 AM 46.9 °F - 40.1 °F 77% 29.94 in 10.0 mi ESE 9.2 mph - N/A   Clear
9:15 AM 48.4 °F - 40.5 °F 74% 29.94 in 10.0 mi ESE 8.1 mph - N/A   Clear
9:35 AM 49.6 °F - 40.8 °F 72% 29.94 in 10.0 mi ESE 8.1 mph - N/A   Clear
9:55 AM 50.0 °F - 41.0 °F 71% 29.94 in 10.0 mi ESE 5.8 mph - N/A   Clear
10:15 AM 51.8 °F - 41.9 °F 69% 29.93 in 10.0 mi ESE 6.9 mph - N/A   Clear
10:35 AM 54.5 °F - 42.4 °F 64% 29.94 in 10.0 mi SE 5.8 mph - N/A   Clear
10:55 AM 55.9 °F - 42.8 °F 61% 29.93 in 10.0 mi SE 4.6 mph - N/A   Clear
11:15 AM 55.8 °F - 43.2 °F 63% 29.92 in 10.0 mi East 5.8 mph - N/A   Clear
11:35 AM 57.0 °F - 43.7 °F 61% 29.91 in 10.0 mi ESE 8.1 mph - N/A   Clear
11:55 AM 58.8 °F - 44.1 °F 58% 29.90 in 10.0 mi ESE 5.8 mph - N/A   Clear
12:15 PM 61.0 °F - 45.0 °F 56% 29.89 in 10.0 mi ESE 4.6 mph - N/A   Clear
12:35 PM 62.2 °F - 45.1 °F 54% 29.87 in 10.0 mi SE 5.8 mph - N/A   Clear
12:55 PM 61.5 °F - 45.5 °F 56% 29.87 in 10.0 mi ESE 6.9 mph - N/A   Clear
1:15 PM 61.7 °F - 45.5 °F 55% 29.86 in 10.0 mi East 8.1 mph - N/A   Clear
1:35 PM 61.9 °F - 45.3 °F 55% 29.85 in 10.0 mi ESE 9.2 mph - N/A   Clear
1:55 PM 61.3 °F - 45.5 °F 56% 29.85 in 10.0 mi ESE 8.1 mph - N/A   Clear
2:15 PM 61.3 °F - 45.7 °F 56% 29.85 in 10.0 mi ESE 11.5 mph - N/A   Clear
2:35 PM 61.2 °F - 46.0 °F 58% 29.84 in 10.0 mi SE 9.2 mph - N/A   Clear
2:55 PM 60.8 °F - 46.0 °F 58% 29.84 in 10.0 mi ESE 8.1 mph - N/A   Clear
3:15 PM 61.2 °F - 46.6 °F 59% 29.84 in 10.0 mi ESE 10.4 mph - N/A   Clear
3:35 PM 61.0 °F - 46.8 °F 59% 29.83 in 10.0 mi ESE 8.1 mph - N/A   Clear
3:55 PM 60.8 °F - 47.1 °F 61% 29.84 in 10.0 mi ESE 6.9 mph - N/A   Clear
4:15 PM 60.4 °F - 47.5 °F 62% 29.83 in 10.0 mi ESE 5.8 mph - N/A   Clear
4:35 PM 60.1 °F - 47.7 °F 64% 29.84 in 10.0 mi ESE 6.9 mph - N/A   Clear
4:55 PM 59.5 °F - 47.8 °F 65% 29.84 in 10.0 mi ESE 6.9 mph - N/A   Clear
5:15 PM 59.2 °F - 47.8 °F 66% 29.84 in 10.0 mi East 5.8 mph - N/A   Clear
5:35 PM 59.4 °F - 47.8 °F 66% 29.84 in 10.0 mi East 8.1 mph - N/A   Clear
5:55 PM 59.2 °F - 47.8 °F 66% 29.84 in 10.0 mi East 5.8 mph - N/A   Clear
6:15 PM 58.6 °F - 47.8 °F 67% 29.84 in 10.0 mi East 6.9 mph - N/A   Mostly Cloudy
6:35 PM 58.3 °F - 47.7 °F 68% 29.84 in 10.0 mi East 5.8 mph - N/A   Mostly Cloudy
6:55 PM 57.7 °F - 47.7 °F 69% 29.84 in 10.0 mi East 6.9 mph - N/A   Mostly Cloudy
7:15 PM 57.6 °F - 47.5 °F 69% 29.83 in 10.0 mi East 6.9 mph - N/A   Overcast
7:35 PM 57.2 °F - 47.5 °F 70% 29.84 in 10.0 mi East 6.9 mph - N/A   Overcast
7:55 PM 56.3 °F - 47.3 °F 72% 29.84 in 10.0 mi East 6.9 mph - N/A   Overcast
8:15 PM 56.3 °F - 47.3 °F 72% 29.84 in 10.0 mi East 8.1 mph - N/A   Overcast
8:35 PM 56.5 °F - 47.7 °F 72% 29.84 in 10.0 mi East 8.1 mph - N/A   Overcast
8:55 PM 56.7 °F - 47.7 °F 72% 29.84 in 10.0 mi East 8.1 mph - N/A   Overcast
9:15 PM 56.8 °F - 48.2 °F 73% 29.84 in 10.0 mi ESE 8.1 mph - N/A   Mostly Cloudy
9:35 PM 56.5 °F - 48.2 °F 74% 29.83 in 10.0 mi ESE 9.2 mph - N/A   Overcast
9:55 PM 56.5 °F - 48.4 °F 74% 29.83 in 10.0 mi ESE 9.2 mph - N/A   Overcast
10:15 PM 56.3 °F - 48.4 °F 75% 29.83 in 10.0 mi ESE 8.1 mph - N/A   Overcast
10:35 PM 56.3 °F - 48.6 °F 75% 29.83 in 10.0 mi ESE 9.2 mph - N/A   Overcast
10:55 PM 56.3 °F - 48.7 °F 76% 29.83 in 10.0 mi ESE 9.2 mph - N/A   Overcast
11:15 PM 56.5 °F - 49.1 °F 76% 29.82 in 10.0 mi East 8.1 mph - N/A   Mostly Cloudy
11:35 PM 57.6 °F - 50.2 °F 76% 29.82 in 10.0 mi ESE 9.2 mph - N/A   Mostly Cloudy
11:55 PM 58.1 °F - 50.4 °F 75% 29.82 in 10.0 mi ESE 6.9 mph - N/A   Mostly Cloudy